User: anonymous   Login
Location: Parc des �les de St-Timoth�e
(45.2924°N, 74.0481°W)
Time: 11:27:09
(UTC-04:00)
Language:

Cosmos 2173 Rocket - Orbit

View from above orbital plane
View from above orbital plane
View from above satellite
View from above satellite

Ground track
Ground track

The orbit data is extracted from the following two-line orbital elements,

1 21797U 91081B   18145.58282309 +.00000129 +00000-0 +11357-3 0  9993
2 21797 082.9523 167.9172 0037271 207.1025 263.7713 13.77429355331267
Epoch (UTC): 25 May 2018 13:59:15
Eccentricity: 0.0037271
inclination: 82.9523°
perigee height: 945 km
apogee height: 1000 km
right ascension of ascending node: 167.9172°
argument of perigee: 207.1025°
revolutions per day: 13.77429355
mean anomaly at epoch: 263.7713°
orbit number at epoch: 33126

The dashed part of the orbit path shows where the satellite is in the earth's shadow,  

DLR